Location: Peterborough
(44.3091°N, 78.3197°W)
Time: 16:00:10
(UTC-04:00)

Transit 4A - Pass Details

Date: 25 March 2023
Orbit: 864 x 980 km, 66.8° (Epoch: 04 June)

Event Time Altitude Azimuth Distance (km) Brightness Sun altitude
Rises 14:15:07 0° 333° (NNW) 3,539 10.6 45.9°
Reaches altitude 10° 14:18:27 10° 351° (N) 2,618 10.0 45.6°
Maximum altitude 14:22:39 19° 35° (NE) 2,076 9.5 45.4°
Drops below altitude 10° 14:26:55 10° 79° (E) 2,667 10.2 45.1°
Sets 14:30:20 0° 97° (E) 3,630 10.9 44.8°
